Time,TemperatureF,DewpointF,PressureIn,WindDirection,WindDirectionDegrees,WindSpeedMPH,WindSpeedGustMPH,Humidity,HourlyPrecipIn,Conditions,Clouds,dailyrainin,SolarRadiationWatts/m^2,SoftwareType,DateUTC
2013-07-08 00:01:00,78.0,69.0,29.81,NE,48,6.0,9.0,74,0.00,,,0.00,0.000000,,2013-07-08 05:01:00,
2013-07-08 00:11:00,78.0,69.0,29.81,ESE,119,4.0,10.0,75,0.00,,,0.00,0.000000,,2013-07-08 05:11:00,
2013-07-08 00:22:00,79.0,69.0,29.81,ENE,71,0.0,8.0,72,0.00,,,0.00,0.000000,,2013-07-08 05:22:00,
2013-07-08 00:33:00,78.0,69.0,29.82,NE,40,4.0,7.0,74,0.00,,,0.00,0.000000,,2013-07-08 05:33:00,
2013-07-08 00:43:00,78.0,69.0,29.82,NE,40,4.0,7.0,74,0.00,,,0.00,0.000000,,2013-07-08 05:43:00,
2013-07-08 00:53:00,77.0,70.0,29.83,NNE,30,8.0,12.0,78,0.00,,,0.00,0.000000,,2013-07-08 05:53:00,
2013-07-08 01:01:00,77.0,70.0,29.83,NNE,30,8.0,12.0,78,0.00,,,0.00,0.000000,,2013-07-08 06:01:00,
2013-07-08 01:11:00,77.0,70.0,29.83,NNE,30,8.0,12.0,78,0.00,,,0.00,0.000000,,2013-07-08 06:11:00,
2013-07-08 01:22:00,78.0,70.0,29.84,NW,324,0.0,5.0,76,0.00,,,0.00,0.000000,,2013-07-08 06:22:00,
2013-07-08 01:33:00,78.0,70.0,29.84,NW,324,0.0,5.0,76,0.00,,,0.00,0.000000,,2013-07-08 06:33:00,
2013-07-08 01:43:00,78.0,70.0,29.84,NW,324,0.0,5.0,76,0.00,,,0.00,0.000000,,2013-07-08 06:43:00,
2013-07-08 01:53:00,78.0,70.0,29.83,South,177,3.0,6.0,76,0.00,,,0.00,0.000000,,2013-07-08 06:53:00,
2013-07-08 02:02:00,78.0,69.0,29.83,South,183,0.0,8.0,74,0.00,,,0.00,0.000000,,2013-07-08 07:02:00,
2013-07-08 02:12:00,78.0,70.0,29.82,South,183,1.0,3.0,76,0.00,,,0.00,0.000000,,2013-07-08 07:12:00,
2013-07-08 02:22:00,77.0,69.0,29.82,South,183,0.0,0.0,76,0.00,,,0.00,0.000000,,2013-07-08 07:22:00,
2013-07-08 02:34:00,77.0,69.0,29.82,South,184,0.0,3.0,76,0.00,,,0.00,0.000000,,2013-07-08 07:34:00,
2013-07-08 02:44:00,76.0,69.0,29.83,WSW,237,6.0,8.0,78,0.00,,,0.00,0.000000,,2013-07-08 07:44:00,
2013-07-08 02:52:00,76.0,69.0,29.83,SW,215,3.0,7.0,78,0.00,,,0.00,0.000000,,2013-07-08 07:52:00,
2013-07-08 03:02:00,78.0,67.0,29.82,West,270,6.0,12.0,69,0.00,,,0.00,0.000000,,2013-07-08 08:02:00,
2013-07-08 03:12:00,79.0,64.0,29.81,SSW,195,6.0,15.0,61,0.00,,,0.00,0.000000,,2013-07-08 08:12:00,
2013-07-08 03:22:00,79.0,64.0,29.81,SW,219,5.0,7.0,60,0.00,,,0.00,0.000000,,2013-07-08 08:22:00,
2013-07-08 03:33:00,79.0,65.0,29.82,North,349,5.0,7.0,62,0.00,,,0.00,0.000000,,2013-07-08 08:33:00,
2013-07-08 03:42:00,80.0,65.0,29.81,North,349,2.0,5.0,60,0.00,,,0.00,0.000000,,2013-07-08 08:42:00,
2013-07-08 03:53:00,80.0,65.0,29.82,SE,143,5.0,8.0,61,0.00,,,0.00,0.000000,,2013-07-08 08:53:00,
2013-07-08 04:01:00,77.0,66.0,29.82,SE,124,3.0,10.0,69,0.00,,,0.00,0.000000,,2013-07-08 09:01:00,
2013-07-08 04:11:00,77.0,66.0,29.81,ESE,123,5.0,10.0,69,0.00,,,0.00,0.000000,,2013-07-08 09:11:00,
2013-07-08 04:22:00,77.0,66.0,29.81,SE,138,6.0,12.0,69,0.00,,,0.00,0.000000,,2013-07-08 09:22:00,
2013-07-08 04:34:00,77.0,66.0,29.81,ESE,121,5.0,8.0,69,0.00,,,0.00,0.000000,,2013-07-08 09:34:00,
2013-07-08 04:43:00,76.0,66.0,29.82,SSE,153,5.0,7.0,71,0.00,,,0.00,0.000000,,2013-07-08 09:43:00,
2013-07-08 04:52:00,76.0,67.0,29.82,SSE,154,8.0,12.0,73,0.00,,,0.00,0.000000,,2013-07-08 09:52:00,
2013-07-08 05:02:00,75.0,66.0,29.81,South,170,12.0,14.0,74,0.00,,,0.00,0.000000,,2013-07-08 10:02:00,
2013-07-08 05:22:00,75.0,66.0,29.82,South,170,8.0,13.0,74,0.00,,,0.00,0.000000,,2013-07-08 10:22:00,
2013-07-08 05:34:00,76.0,67.0,29.82,South,175,6.0,10.0,73,0.00,,,0.00,0.000000,,2013-07-08 10:34:00,
2013-07-08 05:53:00,76.0,66.0,29.83,South,170,5.0,9.0,72,0.00,,,0.00,0.000000,,2013-07-08 10:53:00,
2013-07-08 06:02:00,76.0,66.0,29.83,South,184,2.0,9.0,71,0.00,,,0.00,0.000000,,2013-07-08 11:02:00,
2013-07-08 06:11:00,76.0,66.0,29.83,SSW,195,7.0,9.0,71,0.00,,,0.00,0.000000,,2013-07-08 11:11:00,
2013-07-08 06:22:00,76.0,66.0,29.83,South,190,7.0,10.0,71,0.00,,,0.00,0.000000,,2013-07-08 11:22:00,
2013-07-08 06:33:00,76.0,66.0,29.83,South,189,3.0,8.0,71,0.00,,,0.00,0.000000,,2013-07-08 11:33:00,
2013-07-08 06:43:00,76.0,66.0,29.83,South,189,3.0,6.0,71,0.00,,,0.00,0.000000,,2013-07-08 11:43:00,
2013-07-08 06:53:00,75.0,65.0,29.83,South,189,1.0,5.0,72,0.00,,,0.00,0.000000,,2013-07-08 11:53:00,
2013-07-08 07:01:00,75.0,65.0,29.83,South,188,3.0,6.0,72,0.00,,,0.00,0.000000,,2013-07-08 12:01:00,
2013-07-08 07:11:00,75.0,66.0,29.83,South,181,2.0,6.0,73,0.00,,,0.00,0.000000,,2013-07-08 12:11:00,
2013-07-08 07:22:00,75.0,66.0,29.83,South,178,3.0,3.0,74,0.00,,,0.00,0.000000,,2013-07-08 12:22:00,
2013-07-08 07:34:00,75.0,66.0,29.83,South,177,4.0,5.0,73,0.00,,,0.00,0.000000,,2013-07-08 12:34:00,
2013-07-08 07:53:00,74.0,66.0,29.84,SSE,150,5.0,9.0,75,0.00,,,0.00,0.000000,,2013-07-08 12:53:00,
2013-07-08 08:01:00,74.0,66.0,29.85,SSE,166,1.0,8.0,76,0.00,,,0.00,0.000000,,2013-07-08 13:01:00,
2013-07-08 08:11:00,74.0,66.0,29.85,SSE,166,2.0,5.0,75,0.00,,,0.00,0.000000,,2013-07-08 13:11:00,
2013-07-08 08:22:00,75.0,67.0,29.85,SSE,166,0.0,3.0,75,0.00,,,0.00,0.000000,,2013-07-08 13:22:00,
2013-07-08 08:33:00,75.0,66.0,29.85,SSE,166,0.0,0.0,74,0.00,,,0.00,0.000000,,2013-07-08 13:33:00,
2013-07-08 08:42:00,75.0,66.0,29.85,SSE,166,0.0,0.0,74,0.00,,,0.00,0.000000,,2013-07-08 13:42:00,
2013-07-08 08:53:00,75.0,67.0,29.85,SSE,166,0.0,2.0,77,0.00,,,0.00,0.000000,,2013-07-08 13:53:00,
2013-07-08 09:02:00,74.0,66.0,29.85,SSE,166,0.0,3.0,77,0.00,,,0.00,0.000000,,2013-07-08 14:02:00,
2013-07-08 09:12:00,75.0,68.0,29.86,SSE,166,0.0,1.0,78,0.00,,,0.00,0.000000,,2013-07-08 14:12:00,
2013-07-08 09:22:00,75.0,68.0,29.87,SSE,166,5.0,6.0,78,0.00,,,0.00,0.000000,,2013-07-08 14:22:00,
2013-07-08 09:34:00,75.0,68.0,29.87,SSE,164,2.0,6.0,79,0.00,,,0.00,0.000000,,2013-07-08 14:34:00,
2013-07-08 09:43:00,76.0,68.0,29.87,SSE,164,2.0,3.0,77,0.00,,,0.00,0.000000,,2013-07-08 14:43:00,
2013-07-08 09:53:00,77.0,68.0,29.87,SSE,164,2.0,3.0,73,0.00,,,0.00,0.000000,,2013-07-08 14:53:00,
2013-07-08 10:02:00,77.0,68.0,29.87,SSE,164,1.0,3.0,73,0.00,,,0.00,0.000000,,2013-07-08 15:02:00,
2013-07-08 10:11:00,78.0,69.0,29.86,SSE,164,1.0,2.0,73,0.00,,,0.00,0.000000,,2013-07-08 15:11:00,
2013-07-08 10:22:00,79.0,69.0,29.86,SSE,164,1.0,3.0,72,0.00,,,0.00,0.000000,,2013-07-08 15:22:00,
2013-07-08 10:33:00,80.0,70.0,29.86,SSE,164,3.0,3.0,71,0.00,,,0.00,0.000000,,2013-07-08 15:33:00,
2013-07-08 10:43:00,81.0,70.0,29.85,SSE,164,0.0,3.0,69,0.00,,,0.00,0.000000,,2013-07-08 15:43:00,
2013-07-08 10:53:00,81.0,70.0,29.85,SSE,164,0.0,3.0,69,0.00,,,0.00,0.000000,,2013-07-08 15:53:00,
2013-07-08 11:01:00,83.0,67.0,29.85,SSW,199,9.0,15.0,59,0.00,,,0.00,0.000000,,2013-07-08 16:01:00,
2013-07-08 11:11:00,83.0,67.0,29.85,SSW,202,13.0,16.0,58,0.00,,,0.00,0.000000,,2013-07-08 16:11:00,
2013-07-08 11:22:00,84.0,69.0,29.85,SSW,207,9.0,15.0,60,0.00,,,0.00,0.000000,,2013-07-08 16:22:00,
2013-07-08 11:33:00,84.0,68.0,29.85,SSW,193,10.0,17.0,58,0.00,,,0.00,0.000000,,2013-07-08 16:33:00,
2013-07-08 11:43:00,84.0,67.0,29.85,SSW,211,13.0,18.0,56,0.00,,,0.00,0.000000,,2013-07-08 16:43:00,
2013-07-08 11:53:00,85.0,68.0,29.85,SSW,204,9.0,17.0,57,0.00,,,0.00,0.000000,,2013-07-08 16:53:00,
2013-07-08 12:06:00,85.0,66.0,29.85,SSW,203,12.0,20.0,54,0.00,,,0.00,0.000000,,2013-07-08 17:06:00,
2013-07-08 12:13:00,85.0,68.0,29.85,SSW,204,7.0,15.0,56,0.00,,,0.00,0.000000,,2013-07-08 17:13:00,
2013-07-08 12:25:00,86.0,67.0,29.85,SSW,197,7.0,17.0,54,0.00,,,0.00,0.000000,,2013-07-08 17:25:00,
2013-07-08 12:37:00,87.0,65.0,29.84,South,188,12.0,15.0,49,0.00,,,0.00,0.000000,,2013-07-08 17:37:00,
2013-07-08 12:45:00,88.0,67.0,29.84,South,183,7.0,15.0,50,0.00,,,0.00,0.000000,,2013-07-08 17:45:00,
2013-07-08 12:54:00,89.0,65.0,29.84,SSW,194,11.0,15.0,46,0.00,,,0.00,0.000000,,2013-07-08 17:54:00,
2013-07-08 13:19:00,90.0,66.0,29.84,SSW,205,8.0,12.0,46,0.00,,,0.00,0.000000,,2013-07-08 18:19:00,
2013-07-08 13:29:00,90.0,66.0,29.84,SSW,205,8.0,12.0,46,0.00,,,0.00,0.000000,,2013-07-08 18:29:00,
2013-07-08 13:39:00,90.0,66.0,29.83,South,183,8.0,12.0,45,0.00,,,0.00,0.000000,,2013-07-08 18:39:00,
2013-07-08 13:47:00,91.0,67.0,29.83,South,190,6.0,12.0,46,0.00,,,0.00,0.000000,,2013-07-08 18:47:00,
2013-07-08 13:55:00,91.0,67.0,29.83,South,178,3.0,10.0,46,0.00,,,0.00,0.000000,,2013-07-08 18:55:00,
2013-07-08 14:10:00,91.0,67.0,29.83,South,169,6.0,12.0,46,0.00,,,0.00,0.000000,,2013-07-08 19:10:00,
2013-07-08 14:28:00,91.0,67.0,29.83,SSE,159,6.0,12.0,45,0.00,,,0.00,0.000000,,2013-07-08 19:28:00,
2013-07-08 14:36:00,92.0,68.0,29.82,SE,146,5.0,12.0,45,0.00,,,0.00,0.000000,,2013-07-08 19:36:00,
2013-07-08 14:48:00,93.0,68.0,29.82,SSE,163,5.0,8.0,44,0.00,,,0.00,0.000000,,2013-07-08 19:48:00,
2013-07-08 14:56:00,93.0,67.0,29.82,SSW,197,7.0,13.0,43,0.00,,,0.00,0.000000,,2013-07-08 19:56:00,
2013-07-08 15:09:00,93.0,67.0,29.81,SSE,158,5.0,10.0,43,0.00,,,0.00,0.000000,,2013-07-08 20:09:00,
2013-07-08 15:27:00,94.0,66.0,29.81,SSE,157,7.0,13.0,40,0.00,,,0.00,0.000000,,2013-07-08 20:27:00,
2013-07-08 15:39:00,94.0,66.0,29.80,South,180,10.0,14.0,40,0.00,,,0.00,0.000000,,2013-07-08 20:39:00,
2013-07-08 15:57:00,95.0,66.0,29.80,South,191,12.0,20.0,39,0.00,,,0.00,0.000000,,2013-07-08 20:57:00,
2013-07-08 16:09:00,95.0,67.0,29.81,SSW,205,16.0,22.0,40,0.00,,,0.00,0.000000,,2013-07-08 21:09:00,
2013-07-08 16:18:00,94.0,65.0,29.81,South,189,16.0,21.0,39,0.00,,,0.00,0.000000,,2013-07-08 21:18:00,
2013-07-08 16:28:00,94.0,64.0,29.80,SSW,193,13.0,22.0,37,0.00,,,0.00,0.000000,,2013-07-08 21:28:00,
2013-07-08 16:39:00,94.0,66.0,29.80,SSW,213,12.0,17.0,40,0.00,,,0.00,0.000000,,2013-07-08 21:39:00,
2013-07-08 16:48:00,94.0,64.0,29.80,SSW,205,14.0,21.0,38,0.00,,,0.00,0.000000,,2013-07-08 21:48:00,
2013-07-08 17:10:00,95.0,65.0,29.79,South,171,12.0,17.0,38,0.00,,,0.00,0.000000,,2013-07-08 22:10:00,
2013-07-08 17:20:00,95.0,65.0,29.79,South,175,10.0,20.0,37,0.00,,,0.00,0.000000,,2013-07-08 22:20:00,
2013-07-08 17:27:00,95.0,66.0,29.78,South,186,6.0,14.0,39,0.00,,,0.00,0.000000,,2013-07-08 22:27:00,
2013-07-08 17:39:00,96.0,65.0,29.78,SSE,159,8.0,12.0,36,0.00,,,0.00,0.000000,,2013-07-08 22:39:00,
2013-07-08 17:57:00,96.0,65.0,29.78,SSE,156,7.0,13.0,37,0.00,,,0.00,0.000000,,2013-07-08 22:57:00,
2013-07-08 18:09:00,96.0,65.0,29.77,SSE,157,9.0,15.0,36,0.00,,,0.00,0.000000,,2013-07-08 23:09:00,
2013-07-08 18:17:00,96.0,65.0,29.76,South,170,6.0,14.0,36,0.00,,,0.00,0.000000,,2013-07-08 23:17:00,
2013-07-08 18:28:00,97.0,66.0,29.76,SSW,194,11.0,16.0,37,0.00,,,0.00,0.000000,,2013-07-08 23:28:00,
2013-07-08 18:40:00,97.0,66.0,29.75,SSE,161,12.0,14.0,36,0.00,,,0.00,0.000000,,2013-07-08 23:40:00,
2013-07-08 18:50:00,97.0,65.0,29.75,SE,131,10.0,14.0,35,0.00,,,0.00,0.000000,,2013-07-08 23:50:00,
2013-07-08 18:57:00,96.0,64.0,29.75,SSE,150,7.0,14.0,35,0.00,,,0.00,0.000000,,2013-07-08 23:57:00,
2013-07-08 19:10:00,96.0,65.0,29.75,SE,142,6.0,12.0,36,0.00,,,0.00,0.000000,,2013-07-09 00:10:00,
2013-07-08 19:18:00,96.0,64.0,29.75,SSE,148,7.0,14.0,35,0.00,,,0.00,0.000000,,2013-07-09 00:18:00,
2013-07-08 19:28:00,95.0,65.0,29.75,SSE,157,8.0,12.0,37,0.00,,,0.00,0.000000,,2013-07-09 00:28:00,
2013-07-08 19:50:00,94.0,64.0,29.74,SE,146,9.0,12.0,38,0.00,,,0.00,0.000000,,2013-07-09 00:50:00,
2013-07-08 19:57:00,93.0,64.0,29.74,SSE,158,10.0,14.0,38,0.00,,,0.00,0.000000,,2013-07-09 00:57:00,
2013-07-08 20:50:00,92.0,64.0,29.74,SSE,155,10.0,14.0,40,0.00,,,0.00,0.000000,,2013-07-09 01:50:00,
2013-07-08 20:58:00,92.0,64.0,29.74,SSE,166,14.0,20.0,40,0.00,,,0.00,0.000000,,2013-07-09 01:58:00,
2013-07-08 21:21:00,-999.0,-99.9,29.74,SSE,150,9.0,18.0,41,0.00,,,0.00,0.000000,,2013-07-09 02:21:00,
2013-07-08 21:40:00,91.0,65.0,29.76,SSE,161,9.0,14.0,42,0.00,,,0.00,0.000000,,2013-07-09 02:40:00,
2013-07-08 21:58:00,89.0,64.0,29.78,SW,223,5.0,9.0,44,0.00,,,0.00,0.000000,,2013-07-09 02:58:00,
2013-07-08 22:18:00,89.0,64.0,29.77,SE,136,3.0,12.0,44,0.00,,,0.00,0.000000,,2013-07-09 03:18:00,
2013-07-08 22:28:00,88.0,63.0,29.78,SSE,152,8.0,13.0,43,0.00,,,0.00,0.000000,,2013-07-09 03:28:00,
2013-07-08 22:49:00,87.0,62.0,29.78,SSE,157,9.0,13.0,44,0.00,,,0.00,0.000000,,2013-07-09 03:49:00,
2013-07-08 22:58:00,87.0,62.0,29.77,SSE,155,11.0,14.0,43,0.00,,,0.00,0.000000,,2013-07-09 03:58:00,
2013-07-08 23:02:00,87.0,62.0,29.77,SSE,155,10.0,14.0,43,0.00,,,0.00,0.000000,,2013-07-09 04:02:00,
2013-07-08 23:11:00,86.0,61.0,29.77,SSE,161,10.0,14.0,43,0.00,,,0.00,0.000000,,2013-07-09 04:11:00,
2013-07-08 23:22:00,86.0,62.0,29.76,SSE,161,10.0,15.0,44,0.00,,,0.00,0.000000,,2013-07-09 04:22:00,
2013-07-08 23:33:00,86.0,61.0,29.76,SSE,164,10.0,16.0,43,0.00,,,0.00,0.000000,,2013-07-09 04:33:00,
2013-07-08 23:42:00,86.0,62.0,29.76,South,181,9.0,16.0,44,0.00,,,0.00,0.000000,,2013-07-09 04:42:00,
2013-07-08 23:53:00,86.0,61.0,29.76,SSE,162,10.0,15.0,43,0.00,,,0.00,0.000000,,2013-07-09 04:53:00,